CDT,Max TemperatureF,Mean TemperatureF,Min TemperatureF,Max Dew PointF,MeanDew PointF,Min DewpointF,Max Humidity, Mean Humidity, Min Humidity, Max Sea Level PressureIn, Mean Sea Level PressureIn, Min Sea Level PressureIn, Max VisibilityMiles, Mean VisibilityMiles, Min VisibilityMiles, Max Wind SpeedMPH, Mean Wind SpeedMPH, Max Gust SpeedMPH,PrecipitationIn, CloudCover, Events, WindDirDegrees
2012-10-1,71,60,48,48,35,25,63,41,18,30.02,29.97,29.88,10,10,4,24,9,31,0.00,1,,323
2012-10-2,75,55,35,37,26,18,75,40,12,30.01,29.91,29.81,10,10,7,10,3,17,0.00,0,,177
2012-10-3,78,60,42,30,26,12,57,31,8,29.89,29.84,29.73,10,10,7,17,7,26,0.00,0,,139
2012-10-4,64,52,39,39,32,27,81,60,28,30.22,30.02,29.71,10,10,4,33,22,46,0.00,7,,286
2012-10-5,46,38,30,32,25,23,80,60,40,30.23,30.20,30.18,10,10,10,28,17,36,0.00,4,,296
2012-10-6,46,36,26,30,23,18,81,59,32,30.33,30.27,30.22,10,9,4,20,12,25,0.00,5,Snow,315
2012-10-7,57,39,21,23,15,10,80,46,16,30.24,30.05,29.83,10,10,7,17,5,23,0.00,0,,222
2012-10-8,66,50,33,37,27,16,66,45,27,29.83,29.71,29.58,10,10,7,24,5,31,0.00,2,Rain,221
2012-10-9,48,42,35,34,28,21,70,53,40,30.03,29.87,29.74,10,10,7,30,11,38,0.00,5,Rain,287
2012-10-10,55,39,23,30,23,16,87,50,21,30.10,30.00,29.79,10,10,7,16,7,23,0.00,1,,244
2012-10-11,53,40,28,34,23,10,76,48,20,30.42,30.15,29.79,10,10,7,20,9,23,0.00,1,Rain,338
2012-10-12,55,37,19,25,15,9,86,44,15,30.43,30.26,29.94,10,10,10,20,6,26,0.00,2,,149
2012-10-13,60,52,42,48,41,16,93,67,22,29.94,29.77,29.68,10,7,0,12,5,20,0.00,5,Fog,162
2012-10-14,60,50,39,45,38,30,93,69,36,29.94,29.85,29.76,10,8,0,18,6,28,0.00,5,Fog,323
2012-10-15,66,47,28,39,32,25,93,55,28,29.96,29.86,29.67,10,10,5,13,4,17,0.00,0,,169
2012-10-16,75,62,50,45,40,37,67,47,25,29.66,29.50,29.35,10,10,10,9,5,,0.00,1,,131
2012-10-17,57,50,44,50,44,39,93,72,55,29.35,29.24,29.10,10,10,2,29,12,34,0.01,6,Rain,257
2012-10-18,48,45,42,46,43,39,93,89,81,29.41,29.27,29.16,10,5,1,21,13,28,0.22,8,Rain,310
2012-10-19,48,46,44,46,44,43,93,90,82,29.76,29.63,29.41,10,8,2,21,13,29,0.05,8,Rain,323
2012-10-20,53,48,42,45,43,41,93,86,72,29.81,29.76,29.73,10,7,0,14,5,17,0.00,6,Fog,178
2012-10-21,59,52,44,48,44,41,93,81,63,29.94,29.81,29.73,10,9,5,17,10,24,0.00,1,,111
2012-10-22,59,50,42,48,45,39,93,75,59,29.98,29.92,29.84,10,10,7,22,12,28,0.01,4,Rain,53
2012-10-23,62,58,53,61,54,46,94,88,72,29.84,29.74,29.66,10,4,0,15,9,18,0.22,8,Fog-Rain-Thunderstorm,116
2012-10-24,59,52,44,55,45,37,94,81,66,29.91,29.86,29.80,10,9,3,20,11,23,0.01,7,Rain,334
2012-10-25,44,40,35,37,31,25,93,77,60,30.19,29.98,29.82,10,8,1,26,18,33,0.17,8,Rain-Snow-Thunderstorm,313
2012-10-26,39,36,33,28,26,23,81,67,52,30.38,30.32,30.19,10,10,10,18,12,23,0.00,7,,273
2012-10-27,42,34,26,28,26,23,93,72,46,30.36,30.32,30.27,10,10,10,9,4,,0.00,3,,215
2012-10-28,48,40,33,32,29,27,81,67,50,30.31,30.27,30.22,10,10,7,13,6,17,0.00,6,Snow,151
2012-10-29,50,42,35,30,27,25,70,58,43,30.25,30.22,30.20,10,10,10,21,13,25,0.00,1,,133
2012-10-30,48,40,33,32,27,25,75,59,40,30.22,30.16,30.08,10,10,10,13,7,,0.00,2,,85
2012-10-31,55,45,35,39,30,21,81,58,30,30.10,30.02,29.95,10,10,3,7,2,,0.00,4,Rain,250